Location: Ku?niki
(51.4449°N, 17.8974°E)
Time: 06:45:57
(UTC+00:00)

EO-79 - Pass Details

Date: 03 July 2022
Orbit: 588 x 603 km, 98.0° (Epoch: 17 August)

Event Time Altitude Azimuth Distance (km) Brightness Sun altitude
Rises 01:15:12 0° 9° (N) 2,859 ? -9.3°
Reaches altitude 10° 01:17:26 10° 4° (N) 1,954 ? -9.1°
Maximum altitude 01:21:30 46° 291° (WNW) 814 ? -8.7°
Enters shadow 01:25:24 11° 219° (SW) 1,891 ? -8.4°
